Content
SEND FEEDBACK

Daily
Averages
Monthly
Summary
France

LYON, FRANCE


Home > Europe > France
Elevation: 659 feet     Latitude: 45 43N     Longitude: 004 57E

WEATHER
 
SELECT A DAY
Number of Records: 153,989;   Date Range: 7/1/96 - 8/31/14
 
SHARE

PRINT THIS DATA

[ ← Previous Day ]
WEATHER ALMANAC - MARCH 6, 2013
[ Next Day → ]
[ °C ]   °F
Weather ElementAverageHighLow
Temperature46.7 °F51.8 °F (4:30 pm)42.8 °F (6:30 am)
Dewpoint40.5 °F44.6 °F (4:30 pm)35.6 °F (12:30 am)
Humidity79.2 %93 % (10:30 pm)71 % (12:30 am)
Barometer29.55 in29.65 in (12:30 am)29.50 in (2:00 pm)
Wind Speed2.5 mph6.9 mph (3:30 pm)
Weather ElementAverage
Visibility4.5 mi
Wind DirectionESE (129.3 °)

Weather ElementTotal
Precipitation---
Heating Degree Days17.7 (Base 65)
Averaged from 46 records on March 6, 2013
WEATHER CONDITIONS BREAKOUT
WIND DIRECTION BREAKOUT
WEATHER BY HOUR - MARCH 6, 2013
[ °C ]   °F
Local TimeTemperatureDewpointHumidityBarometerVisibilityWind DirectionWind SpeedGust SpeedPrecipitationEventsConditions
12:30 AM44.6 °F35.6 °F71 %29.65 in3.7 miNNW (330°)4.6 mph
1:00 AM44.6 °F35.6 °F71 %29.65 in3.7 miCalm
1:30 AM44.6 °F35.6 °F71 %29.65 in3.7 miNE (50°)3.5 mph
2:00 AM44.6 °F37.4 °F76 %29.65 in3.7 miCalm
2:30 AM44.6 °F35.6 °F71 %29.65 in3.7 miWNW (300°)2.3 mphRainLight Rain
3:00 AM44.6 °F37.4 °F76 %29.62 in3.7 miVariable1.2 mph
3:30 AM44.6 °F37.4 °F76 %29.62 in3.7 miEast (80°)1.2 mph
4:00 AM44.6 °F37.4 °F76 %29.59 in3.7 miCalm
4:30 AM44.6 °F37.4 °F76 %29.59 in3.7 miNE (50°)4.6 mph
5:00 AM44.6 °F35.6 °F71 %29.59 in4.3 miVariable2.3 mph
5:30 AM44.6 °F37.4 °F76 %29.59 in4.3 miCalmRainLight Rain
6:00 AM44.6 °F35.6 °F71 %29.56 in5.0 miCalm
6:30 AM42.8 °F37.4 °F81 %29.56 in4.3 miCalm
7:00 AM42.8 °F37.4 °F81 %29.56 in4.3 miNW (320°)1.2 mph
7:30 AM44.6 °F39.2 °F81 %29.56 in4.3 miVariable1.2 mph
8:00 AM44.6 °F39.2 °F81 %29.56 in4.3 miWSW (250°)3.5 mph
8:30 AM46.4 °F39.2 °F76 %29.56 in3.7 miSouth (190°)4.6 mphRainLight Rain
9:00 AM44.6 °F41.0 °F87 %29.56 in1.7 miCalmRainRain
9:30 AM46.4 °F42.8 °F87 %29.56 inVariable1.2 mphRainLight Rain
10:00 AM46.4 °F41.0 °F81 %29.56 inCalmRainLight Rain
10:30 AM46.4 °F42.8 °F87 %29.56 inVariable3.5 mphRainLight Rain
11:00 AM46.4 °F41.0 °F81 %29.53 in3.7 miNorth (350°)5.8 mphScattered Clouds
11:30 AM46.4 °F41.0 °F81 %29.56 in4.3 miNorth (360°)3.5 mphRainLight Rain
12:30 PM48.2 °F41.0 °F76 %29.53 in4.3 miVariable3.5 mphRainLight Rain
1:00 PM48.2 °F42.8 °F82 %29.53 in4.3 miVariable2.3 mph
1:30 PM48.2 °F41.0 °F76 %29.53 in4.3 miNNW (340°)3.5 mph
2:00 PM48.2 °F41.0 °F76 %29.50 in5.0 miNorth (350°)4.6 mph
2:30 PM50.0 °F42.8 °F76 %29.50 in6.2 miNorth (360°)5.8 mph
3:00 PM50.0 °F41.0 °F71 %29.50 in6.2 miNNE (20°)4.6 mph
3:30 PM50.0 °F42.8 °F76 %29.50 in6.2 miNorth (360°)6.9 mph
4:00 PM50.0 °F42.8 °F76 %29.50 in6.2 miNNE (20°)3.5 mph
4:30 PM51.8 °F44.6 °F76 %29.50 in6.2 miNorth (350°)3.5 mph
5:00 PM50.0 °F42.8 °F76 %29.50 in6.2 miNW (320°)3.5 mph
5:30 PM50.0 °F42.8 °F76 %29.50 in6.2 miNW (310°)6.9 mph
6:00 PM50.0 °F42.8 °F76 %29.50 in6.2 miNorth (350°)4.6 mphOvercast
6:30 PM50.0 °F42.8 °F76 %29.50 in6.2 miNW (310°)5.8 mphRainLight Rain
7:00 PM48.2 °F42.8 °F82 %29.50 in6.2 miNE (40°)2.3 mph
7:30 PM48.2 °F42.8 °F82 %29.53 in6.2 miEast (90°)3.5 mph
8:00 PM48.2 °F44.6 °F87 %29.53 in5.6 miSE (140°)3.5 mphMostly Cloudy
8:30 PM48.2 °F44.6 °F87 %29.53 in5.6 miSouth (180°)3.5 mphOvercast
9:00 PM46.4 °F42.8 °F87 %29.53 in4.3 miCalmOvercast
9:30 PM46.4 °F42.8 °F87 %29.53 in3.7 miCalm
10:00 PM46.4 °F42.8 °F87 %29.53 in3.1 miCalmMist
10:30 PM46.4 °F44.6 °F93 %29.53 in3.1 miSE (130°)1.2 mphMist
11:00 PM46.4 °F42.8 °F87 %29.53 in3.1 miCalmMist
11:30 PM46.4 °F42.8 °F87 %29.53 in2.8 miCalmMist
Hourly data recorded from LFLY, located miles away from Lyon, France







STORIES FROM OUR PARTNERS